Погода в Волоте

Россия / Новгородская область     57°55′40″N   30°42′24″E
темп.,
°C
ветер,
м/с
пор.,
м/с
влажн.,
%
обл.,
%
осадки,
мм/ч
давл.,
гПа
погр.,
м
6 марта, сб
сб600:00−5сз377123 0.0 1017575
03:00−6зсз377912 0.0 1018426
06:00−6зсз26880 0.0 1017271
09:00−6з37820 0.0 1018432
12:00−3зюз46610 0.0 1017826
15:00−1зюз59480 0.0 10141286
18:00−2юз71350100 0.0 10091322
21:00−2юз81787100 0.3 10041310
7 марта, вс
вс700:00−1зюз81680100 0.7 9981172
03:00−1зюз71491100 1.8 9951072
06:00−3з51077100 1.4 9921208
09:00−5з7124993 2.0 9941708
12:00−5зюз598592 0.5 993787
15:00−3зсз597596 1.9 9921142
18:00−4сз3674100 0.5 992796
21:00−7с61078100 0.6 995927
8 марта, пн
пн800:00−8ссз51074100 0.2 9981031
03:00−9сз4108185 0.2 1001601
06:00−8сз6108474 0.0 1003833
09:00−9ссз6108187 0.1 1006922
12:00−8ссз5872100 0.1 1008900
15:00−8ссз5868100 0.1 1011928
18:00−9ссз5874100 0.0 1013841
21:00−11ссз4880100 0.0 1015708
9 марта, вт
вт900:00−12с3683100 0.0 1017570
03:00−13сз248793 0.0 1018327
06:00−12зсз138767 0.0 1018235
09:00−11юз248183 0.0 1017347
12:00−9ююв3589100 0.9 1016379
15:00−7вюв4690100 2.1 1015432
18:00−8всв4892100 1.2 1014470
21:00−10всв5992100 2.3 1016510
10 марта, ср
ср1000:00−12всв5979100 0.3 1019509
03:00−15всв488181 0.3 1021340
06:00−16всв37850 0.0 1022263
09:00−16всв36820 0.0 1024281
12:00−12всв35650 0.0 1025490
15:00−10всв23617 0.0 1025725
18:00−12всв247272 0.0 1024241
21:00−14вюв248544 0.0 1025101